ANZ253 NZWN-YMML

Flight info

Callsign ANZ253
Flight time N/A
Altitude 36000
Route TANEN DCT MIDAT/N0456F380 DCT 40S156E DCT KURRT DCT TASIS P753 RAZZI
Aircraft A321/M-SDE3FGHIRWY/LB1

Departure

Time 2026-05-04 08:25
Airport Wellington International Airport (NZWN)

Arrival

Time N/A
Airport Melbourne Airport (YMML)
Time Latitude Longitude Altitude Speed Heading
2026-05-04 07:36 -41.32756 174.81072 18 ft 0 kts 183°
2026-05-04 08:13 -41.32753 174.81072 18 ft 3 kts 184°
2026-05-04 08:13 -41.32727 174.81078 18 ft 4 kts 204°
2026-05-04 08:14 -41.32708 174.81097 18 ft 4 kts 251°
2026-05-04 08:14 -41.32705 174.81112 18 ft 0 kts 273°
2026-05-04 08:19 -41.32703 174.81057 18 ft 3 kts 273°
2026-05-04 08:19 -41.32702 174.81019 18 ft 5 kts 273°
2026-05-04 08:20 -41.32700 174.80964 18 ft 6 kts 272°
2026-05-04 08:20 -41.32705 174.80915 18 ft 7 kts 248°
2026-05-04 08:20 -41.32723 174.80836 18 ft 7 kts 231°
2026-05-04 08:20 -41.32772 174.80813 18 ft 9 kts 184°
2026-05-04 08:21 -41.32833 174.80808 18 ft 8 kts 183°
2026-05-04 08:21 -41.32888 174.80804 18 ft 8 kts 183°
2026-05-04 08:21 -41.32976 174.80798 18 ft 16 kts 183°
2026-05-04 08:21 -41.33091 174.80791 18 ft 16 kts 183°
2026-05-04 08:22 -41.33199 174.80784 18 ft 15 kts 181°
2026-05-04 08:22 -41.33299 174.80778 18 ft 14 kts 182°
2026-05-04 08:24 -41.33495 174.80627 18 ft 5 kts 11°
2026-05-04 08:24 -41.33465 174.80637 18 ft 3 kts 10°
2026-05-04 08:24 -41.33454 174.80639 18 ft 1 kts
2026-05-04 08:24 -41.33445 174.80640 18 ft 14 kts
2026-05-04 08:25 -41.33045 174.80666 18 ft 98 kts
2026-05-04 08:25 -41.32137 174.80725 99 ft 151 kts
2026-05-04 08:25 -41.31107 174.80815 837 ft 150 kts
2026-05-04 08:25 -41.30036 174.80945 1481 ft 159 kts
2026-05-04 08:26 -41.28966 174.81096 2076 ft 151 kts
2026-05-04 08:27 -41.18868 174.77980 4382 ft 257 kts 346°
2026-05-04 08:28 -41.17118 174.77413 5048 ft 260 kts 345°
2026-05-04 08:28 -41.15353 174.76788 5698 ft 264 kts 343°
2026-05-04 08:28 -41.13659 174.75839 6318 ft 267 kts 325°
2026-05-04 08:28 -41.12304 174.74160 6935 ft 269 kts 310°
2026-05-04 08:29 -41.11123 174.72212 7561 ft 272 kts 307°
2026-05-04 08:29 -41.09942 174.70232 8176 ft 275 kts 308°
2026-05-04 08:29 -41.08702 174.68278 8775 ft 279 kts 310°
2026-05-04 08:31 -41.02831 174.52393 11870 ft 289 kts 276°
2026-05-04 08:33 -41.00695 174.33477 15517 ft 306 kts 278°
2026-05-04 08:33 -41.00375 174.30679 15991 ft 309 kts 278°
2026-05-04 08:35 -40.98035 174.10509 19155 ft 325 kts 279°
2026-05-04 08:35 -40.97687 174.07543 19567 ft 327 kts 279°
2026-05-04 08:35 -40.97336 174.04562 19974 ft 329 kts 279°
2026-05-04 08:35 -40.96983 174.01561 20376 ft 331 kts 279°
2026-05-04 08:37 -40.94713 173.82372 21521 ft 382 kts 279°
2026-05-04 08:37 -40.94291 173.78852 21643 ft 391 kts 279°
2026-05-04 08:37 -40.93859 173.75259 21762 ft 400 kts 279°
2026-05-04 08:38 -40.93417 173.71576 21908 ft 408 kts 279°
2026-05-04 08:38 -40.92969 173.67856 22198 ft 411 kts 279°
2026-05-04 08:38 -40.92515 173.64104 22521 ft 414 kts 279°
2026-05-04 08:40 -40.89245 173.37412 24613 ft 428 kts 279°
2026-05-04 08:40 -40.88764 173.33520 24886 ft 430 kts 279°
2026-05-04 08:40 -40.88280 173.29615 25147 ft 432 kts 279°
2026-05-04 08:41 -40.87791 173.25694 25406 ft 433 kts 279°
2026-05-04 08:41 -40.87298 173.21752 25672 ft 435 kts 279°
2026-05-04 08:41 -40.86803 173.17804 25916 ft 437 kts 279°
2026-05-04 08:41 -40.86305 173.13834 26164 ft 439 kts 279°
2026-05-04 08:42 -40.85802 173.09849 26400 ft 441 kts 279°
2026-05-04 08:42 -40.85294 173.05845 26631 ft 443 kts 279°
2026-05-04 08:42 -40.84787 173.01827 26861 ft 444 kts 279°
2026-05-04 08:42 -40.84276 172.97791 27097 ft 446 kts 279°
2026-05-04 08:43 -40.83760 172.93743 27320 ft 447 kts 279°
2026-05-04 08:43 -40.83246 172.89737 27545 ft 449 kts 279°
2026-05-04 08:43 -40.82724 172.85666 27763 ft 450 kts 279°
2026-05-04 08:43 -40.82200 172.81588 27960 ft 452 kts 279°
2026-05-04 08:44 -40.81670 172.77483 28165 ft 453 kts 279°
2026-05-04 08:44 -40.81138 172.73375 28362 ft 455 kts 279°
2026-05-04 08:46 -40.77325 172.44232 29607 ft 465 kts 279°
2026-05-04 08:46 -40.76768 172.40023 29753 ft 467 kts 279°
2026-05-04 08:46 -40.76208 172.35801 29912 ft 468 kts 279°
2026-05-04 08:46 -40.75645 172.31568 30071 ft 469 kts 279°
2026-05-04 08:47 -40.75087 172.27384 30215 ft 470 kts 279°
2026-05-04 08:47 -40.74518 172.23134 30368 ft 470 kts 279°
2026-05-04 08:47 -40.73946 172.18879 30572 ft 470 kts 279°
2026-05-04 08:47 -40.73375 172.14638 30767 ft 469 kts 279°
2026-05-04 08:48 -40.72801 172.10393 30957 ft 469 kts 279°
2026-05-04 08:48 -40.72228 172.06166 31135 ft 469 kts 279°
2026-05-04 08:48 -40.71652 172.01928 31308 ft 469 kts 279°
2026-05-04 08:48 -40.71075 171.97701 31497 ft 468 kts 279°
2026-05-04 08:49 -40.70497 171.93476 31690 ft 468 kts 279°
2026-05-04 08:50 -40.67020 171.68280 32663 ft 466 kts 279°
2026-05-04 08:50 -40.66436 171.64091 32823 ft 465 kts 279°
2026-05-04 08:51 -40.65851 171.59896 32987 ft 465 kts 279°
2026-05-04 08:51 -40.65266 171.55712 33148 ft 465 kts 279°
2026-05-04 08:51 -40.64677 171.51528 33309 ft 464 kts 279°
2026-05-04 08:51 -40.64087 171.47341 33470 ft 463 kts 279°
2026-05-04 08:52 -40.63497 171.43177 33623 ft 463 kts 279°
2026-05-04 08:52 -40.62907 171.39015 33775 ft 462 kts 279°
2026-05-04 08:52 -40.62317 171.34857 33941 ft 461 kts 279°
2026-05-04 08:52 -40.61727 171.30715 34087 ft 461 kts 279°
2026-05-04 08:53 -40.61134 171.26571 34220 ft 460 kts 279°
2026-05-04 08:54 -40.57183 170.99172 35109 ft 456 kts 279°
2026-05-04 08:55 -40.56585 170.95070 35222 ft 456 kts 279°
2026-05-04 08:55 -40.55985 170.90966 35334 ft 456 kts 280°
2026-05-04 08:55 -40.55386 170.86880 35456 ft 455 kts 280°
2026-05-04 08:55 -40.54786 170.82799 35567 ft 454 kts 280°
2026-05-04 08:57 -40.50792 170.54338 36118 ft 451 kts 271°